[[{"header":{"parameterUnit":"m.s-1","parameterCategory":1,"la1":30.2991,"la2":30.254,"lo1":-89.0895,"lo2":-89.0444,"dy":0.0017,"dx":0.0017,"nx":28,"ny":28,"refTime":"2025-06-19T21:00:00:Z","depth":0,"parameterNumber":2,"parameterNumberName":"U-component_of_WINDS"},"data":[0,0,0,0,0,0,0,0,0,0,0,0,0,0,0,0,0,0,0,0,0,0,0,0,0,0,0,0,0,0,0,0,0,0,0,0,0,0,0,0,0,0,0,0,0,0,0,0,0,0,0,0,0,0,0,0,0,0,1.1755,1.1755,0,1.1795,1.1795,1.1796,1.1752,1.175,1.1748,1.1747,1.1793,1.1795,1.1798,0,0,0,0,0,0,0,0,0,0,0,0,0,1.1645,1.1648,1.1755,1.1755,1.1756,1.1795,1.1795,1.1796,1.1752,1.175,1.1748,1.1746,1.1792,1.1795,1.1798,0,0,0,0,0,0,0,0,0,0,0,0,0,1.169,1.1648,1.1754,1.1738,1.1737,1.1794,1.1795,1.1796,1.1752,1.175,1.1747,1.1745,1.1791,1.1795,1.1799,1.1875,0,0,1.1812,1.1814,0,0,0,0,0,0,0,0,1.1688,1.1694,1.174,1.174,1.1738,1.1765,1.1773,1.1823,1.1753,1.1747,1.1747,1.1744,1.1786,1.179,1.1804,1.1878,1.188,1.1812,1.1815,1.1817,1.1818,0,0,0,0,0,0,0,1.1685,1.1692,1.177,1.1741,1.174,1.1731,1.1734,1.1783,1.178,1.1747,1.1744,1.1749,1.1785,1.18,1.1804,1.188,1.1812,1.1816,1.1818,1.182,1.2021,1.2024,0,0,0,0,0,0,1.1683,1.169,1.1769,1.1772,1.1706,1.1735,1.1739,1.1759,1.178,1.178,1.1751,1.1747,1.1794,1.18,1.1806,1.1898,1.1816,1.182,1.1823,1.2018,1.2022,1.2025,0,0,0,0,0,0,1.168,1.169,1.1768,1.173,1.1739,1.1739,1.1763,1.1762,1.1776,1.1783,1.1783,1.1766,1.1792,1.18,1.1859,1.1899,1.1822,1.1826,1.2015,1.2019,1.2023,1.2083,0,0,0,0,0,0,1.1677,1.1689,1.1717,1.1731,1.1741,1.1818,1.1765,1.1764,1.1783,1.1778,1.1797,1.1798,1.1791,1.1853,1.1863,1.1904,1.1829,1.2011,1.2017,1.2022,1.2077,1.2089,1.2098,0,0,0,0,0,1.1674,1.1733,1.1719,1.1729,1.1776,1.1821,1.1827,1.1816,1.1786,1.1815,1.182,1.1797,1.1893,1.1859,1.187,1.1913,1.2009,1.2015,1.2021,1.2073,1.2086,1.2098,0,0,0,0,0,0,1.1726,1.1735,1.1719,1.1784,1.1802,1.1813,1.1849,1.1831,1.1859,1.1853,1.184,1.1845,1.1907,1.1916,1.1878,1.1989,1.1946,1.1955,1.1981,1.1994,1.2005,1.2002,1.1833,0,0,0,0,0,1.1745,1.1779,1.1785,1.1842,1.1852,1.1849,1.1868,1.1858,1.1877,1.1885,1.1893,1.1913,1.1948,1.1971,1.2004,1.2078,1.2082,1.2113,1.2123,1.2132,1.214,1.2182,1.2196,1.2046,1.2046,1.2045,0,0,1.1785,1.1794,1.1816,1.1853,1.1866,1.1903,1.1856,1.1897,1.1925,1.1891,1.1947,1.1954,1.1976,1.2043,1.2073,1.2052,1.2183,1.214,1.2147,1.2151,1.219,1.2204,1.2217,1.205,1.2049,1.2048,0,0,1.1877,1.1886,1.1935,1.1949,1.1968,1.1966,1.1978,1.1992,1.1995,1.205,1.2026,1.206,1.212,1.2137,1.2153,1.2252,1.2233,1.2263,1.2319,1.2359,1.2371,1.2382,1.2419,1.2432,1.2271,1.2271,1.2271,0,1.1925,1.1978,1.1964,1.2007,1.2025,1.1994,1.2045,1.2059,1.2089,1.2103,1.2078,1.2153,1.2165,1.2237,1.2261,1.2275,1.229,1.2262,1.237,1.2381,1.239,1.2426,1.244,1.2275,1.2275,1.2274,1.2274,0,1.2037,1.2075,1.2113,1.2141,1.2162,1.221,1.2204,1.2228,1.2217,1.2218,1.2276,1.2289,1.2324,1.234,1.233,1.2411,1.2397,1.2372,1.2329,1.2409,1.2442,1.2455,1.228,1.2279,1.2278,1.2277,0,0,1.2164,1.2183,1.2197,1.221,1.2229,1.2259,1.2305,1.2338,1.236,1.2382,1.2422,1.2473,1.245,1.2468,1.246,1.2495,1.2575,1.2465,1.2466,1.2487,1.2667,1.2688,1.2703,1.2562,1.2564,1.2566,1.2666,0,1.2258,1.2337,1.2325,1.2402,1.2438,1.241,1.245,1.2467,1.247,1.2502,1.2505,1.2542,1.2507,1.2519,1.2553,1.2558,1.2611,1.2551,1.2601,1.2603,1.2598,1.272,1.2742,1.2836,1.2679,1.2681,1.2683,0,1.2378,1.2403,1.2483,1.2497,1.2512,1.2548,1.2578,1.2609,1.2628,1.2627,1.2648,1.2634,1.2682,1.2637,1.2705,1.2664,1.2684,1.269,1.2693,1.2699,1.2649,1.2731,1.2865,1.288,1.2702,1.2701,1.2699,0,1.2465,1.2518,1.2573,1.2585,1.2603,1.2629,1.2638,1.2655,1.2676,1.2702,1.2716,1.2749,1.2767,1.2793,1.2788,1.2755,1.2858,1.2812,1.2861,1.2861,1.2885,1.2884,1.3026,1.2895,1.2895,1.2895,1.2894,0,1.2572,1.2623,1.2613,1.2647,1.2704,1.269,1.2747,1.2753,1.2768,1.2804,1.2782,1.2816,1.2807,1.2842,1.2838,1.2896,1.2904,1.2906,1.2905,1.2909,1.2909,1.2923,1.2918,1.2898,1.2898,1.2897,1.2896,0,1.268,1.2675,1.2733,1.2745,1.2749,1.279,1.2801,1.2834,1.2834,1.288,1.2891,1.2892,1.2932,1.2929,1.2974,1.2972,1.3044,1.3034,1.3037,1.3036,1.3085,1.3081,1.3242,1.3263,1.3117,1.3119,1.312,0,1.2749,1.2787,1.2803,1.2825,1.2835,1.2871,1.2892,1.288,1.2903,1.2929,1.296,1.2997,1.3027,1.3092,1.3098,1.3133,1.3125,1.3179,1.3131,1.3134,1.3128,1.3127,1.3131,1.319,1.3191,1.3193,1.3194,0,1.2874,1.287,1.29,1.293,1.2955,1.2978,1.2999,1.3019,1.301,1.3038,1.3077,1.31,1.3146,1.3185,1.3218,1.3229,1.3211,1.3209,1.3222,1.3228,1.3229,1.3231,1.3065,1.3205,1.3204,1.3203,1.3203,1.3202,1.2966,1.2999,1.3015,1.305,1.3064,1.3085,1.3117,1.3121,1.3153,1.3189,1.318,1.3226,1.3245,1.3288,1.3302,1.3339,1.332,1.3339,1.3344,1.3349,1.3356,1.3221,1.3345,1.3344,1.3344,1.3344,1.3344,0,1.3091,1.31,1.3132,1.3162,1.319,1.3168,1.319,1.3216,1.3256,1.3275,1.3304,1.3351,1.3388,1.3396,1.3432,1.346,1.3453,1.347,1.3469,1.3472,1.337,1.3355,1.3476,1.3476,1.3476,1.3476,1.3476,1.3476,1.316,1.3215,1.3213,1.3276,1.3284,1.3328,1.3343,1.3362,1.3377,1.343,1.346,1.3465,1.348,1.3517,1.3551,1.3553,1.3568,1.3589,1.3588,1.3493,1.3479,1.3467,1.3453,1.3592,1.3592,1.3688,1.3688,1.3689]},{"header":{"parameterUnit":"m.s-1","parameterCategory":1,"la1":30.2991,"la2":30.254,"lo1":-89.0895,"lo2":-89.0444,"dy":0.0017,"dx":0.0017,"nx":28,"ny":28,"refTime":"2025-06-19T21:00:00:Z","depth":0,"parameterNumber":3,"parameterNumberName":"V-component_of_WINDS"},"data":[0,0,0,0,0,0,0,0,0,0,0,0,0,0,0,0,0,0,0,0,0,0,0,0,0,0,0,0,0,0,0,0,0,0,0,0,0,0,0,0,0,0,0,0,0,0,0,0,0,0,0,0,0,0,0,0,0,0,1.8094,1.8094,0,1.8094,1.8094,1.8094,1.8079,1.8078,1.8078,1.8078,1.8074,1.8075,1.8075,0,0,0,0,0,0,0,0,0,0,0,0,0,1.8073,1.8073,1.8094,1.8094,1.8094,1.8094,1.8094,1.8094,1.8079,1.8078,1.8078,1.8077,1.8074,1.8075,1.8075,0,0,0,0,0,0,0,0,0,0,0,0,0,1.8078,1.8074,1.8094,1.8086,1.8085,1.8094,1.8094,1.8094,1.8079,1.8078,1.8078,1.8077,1.8074,1.8075,1.8075,1.809,0,0,1.8076,1.8077,0,0,0,0,0,0,0,0,1.8078,1.8079,1.8087,1.8087,1.8086,1.8086,1.8086,1.8093,1.8079,1.8081,1.8078,1.8077,1.8078,1.8079,1.808,1.809,1.809,1.8076,1.8077,1.8077,1.8077,0,0,0,0,0,0,0,1.8078,1.8079,1.8094,1.8087,1.8086,1.8081,1.8081,1.8087,1.8083,1.8081,1.808,1.808,1.8078,1.8079,1.808,1.809,1.8076,1.8077,1.8077,1.8077,1.8106,1.8107,0,0,0,0,0,0,1.8079,1.8079,1.8094,1.8094,1.8081,1.8081,1.8082,1.8086,1.8083,1.8082,1.8081,1.808,1.8079,1.8079,1.8079,1.8094,1.8077,1.8077,1.8078,1.8106,1.8107,1.8107,0,0,0,0,0,0,1.8079,1.8081,1.8094,1.8086,1.8087,1.8082,1.8088,1.8087,1.8088,1.8083,1.8082,1.8084,1.8079,1.8079,1.8087,1.8093,1.8078,1.8078,1.8105,1.8106,1.8107,1.8124,0,0,0,0,0,0,1.8078,1.8081,1.8088,1.8086,1.8088,1.8103,1.8088,1.8087,1.8089,1.8088,1.8085,1.8084,1.8078,1.8086,1.8087,1.8094,1.8078,1.8105,1.8106,1.8107,1.8123,1.8125,1.8127,0,0,0,0,0,1.8078,1.8093,1.8089,1.809,1.8097,1.8103,1.8104,1.8098,1.809,1.8096,1.8092,1.8084,1.8093,1.8087,1.8088,1.8095,1.8104,1.8105,1.8106,1.8122,1.8125,1.8127,0,0,0,0,0,0,1.8095,1.8093,1.8088,1.8104,1.8104,1.8101,1.8109,1.8102,1.8104,1.8102,1.8093,1.8092,1.81,1.8098,1.8092,1.8106,1.8097,1.8098,1.8108,1.8111,1.8113,1.8113,1.8079,0,0,0,0,0,1.8101,1.8108,1.8105,1.8119,1.8119,1.8114,1.8116,1.8111,1.8111,1.8111,1.8107,1.8106,1.8107,1.8109,1.8111,1.8122,1.8119,1.8127,1.8129,1.8131,1.8132,1.8134,1.8137,1.8111,1.8111,1.8111,0,0,1.8113,1.8113,1.8118,1.8122,1.8122,1.8127,1.8114,1.8121,1.8124,1.8111,1.8118,1.8115,1.8112,1.8121,1.8125,1.8119,1.8138,1.8133,1.8134,1.8134,1.8136,1.8138,1.814,1.8112,1.8111,1.8111,0,0,1.8137,1.8139,1.8149,1.8148,1.8148,1.8143,1.8146,1.8143,1.8141,1.8147,1.8137,1.8139,1.8144,1.8141,1.814,1.8159,1.815,1.8159,1.8171,1.8173,1.8175,1.8177,1.8181,1.8183,1.816,1.816,1.8161,0,1.8152,1.8161,1.8155,1.8161,1.8162,1.8151,1.8159,1.8158,1.8158,1.8158,1.8152,1.8155,1.8153,1.8159,1.8163,1.8163,1.8163,1.816,1.8176,1.8177,1.8179,1.8183,1.8184,1.8161,1.8161,1.8161,1.8161,0,1.8177,1.8183,1.8191,1.8191,1.8193,1.82,1.8192,1.8194,1.8188,1.8183,1.8188,1.8184,1.8183,1.8184,1.8179,1.8188,1.8185,1.8178,1.8167,1.8182,1.8186,1.8187,1.8163,1.8162,1.8162,1.8162,0,0,1.8215,1.8209,1.8211,1.8209,1.8206,1.821,1.8215,1.8214,1.8215,1.8214,1.8216,1.8218,1.821,1.8209,1.8203,1.8205,1.8216,1.8197,1.8196,1.8199,1.8223,1.8228,1.823,1.821,1.8211,1.8211,1.8222,0,1.8236,1.8246,1.8239,1.8249,1.8252,1.824,1.8244,1.8241,1.8235,1.8236,1.8229,1.823,1.8221,1.822,1.8221,1.8214,1.822,1.8214,1.821,1.821,1.821,1.8232,1.8238,1.8249,1.8224,1.8224,1.8224,0,1.8263,1.8263,1.8273,1.8266,1.8267,1.8271,1.8268,1.8269,1.8264,1.826,1.8257,1.8249,1.825,1.824,1.824,1.8236,1.8233,1.8229,1.8229,1.8228,1.8218,1.8229,1.8253,1.8254,1.8227,1.8227,1.8226,0,1.8286,1.8288,1.8294,1.8293,1.8285,1.8288,1.8284,1.8279,1.8278,1.8274,1.8273,1.827,1.8267,1.8264,1.8253,1.8248,1.8254,1.8244,1.8248,1.8248,1.825,1.825,1.8271,1.825,1.825,1.825,1.825,0,1.8309,1.8316,1.8303,1.8307,1.8312,1.8302,1.8307,1.8302,1.8297,1.8297,1.8286,1.8286,1.8273,1.8271,1.8262,1.8262,1.8262,1.8256,1.8254,1.8257,1.8257,1.8255,1.8253,1.8251,1.8251,1.825,1.825,0,1.8336,1.8328,1.8333,1.8325,1.8323,1.8327,1.8319,1.832,1.8313,1.8313,1.8313,1.8302,1.8298,1.8287,1.8281,1.8275,1.8277,1.8273,1.8279,1.8277,1.8281,1.828,1.8301,1.8302,1.8282,1.8282,1.8282,0,1.8351,1.8355,1.8347,1.8347,1.8344,1.8344,1.8342,1.8331,1.833,1.8322,1.8324,1.832,1.8316,1.831,1.83,1.8294,1.8289,1.8297,1.8288,1.829,1.8287,1.8286,1.8286,1.8299,1.8299,1.8299,1.8299,0,1.8378,1.8373,1.8372,1.8369,1.8367,1.8364,1.836,1.836,1.8347,1.8345,1.8342,1.8339,1.8332,1.8326,1.8319,1.8313,1.8303,1.8302,1.8302,1.8305,1.8307,1.8304,1.8282,1.8301,1.8301,1.8301,1.8301,1.8301,1.8397,1.8399,1.8393,1.8391,1.8387,1.8383,1.8383,1.8375,1.8373,1.8367,1.836,1.8356,1.8347,1.8336,1.833,1.8326,1.8321,1.8322,1.8322,1.8322,1.8323,1.8309,1.8324,1.8324,1.8324,1.8324,1.8324,0,1.8421,1.8416,1.8415,1.8409,1.8407,1.8399,1.8393,1.8391,1.8388,1.8381,1.8377,1.8371,1.8365,1.8354,1.8347,1.8345,1.834,1.8343,1.8343,1.8341,1.8329,1.8328,1.8347,1.8347,1.8347,1.8347,1.8347,1.8347,1.8434,1.8436,1.843,1.8428,1.8423,1.842,1.8417,1.8412,1.8406,1.84,1.8396,1.8389,1.8379,1.837,1.8363,1.836,1.8357,1.8361,1.8356,1.8345,1.8342,1.834,1.834,1.8361,1.8361,1.8369,1.8369,1.8369]}]]